TimeCDT,TemperatureF,Dew PointF,Humidity,Sea Level PressureIn,VisibilityMPH,Wind Direction,Wind SpeedMPH,Gust SpeedMPH,PrecipitationIn,Events,Conditions,WindDirDegrees,DateUTC
12:53 AM,50.0,46.0,86,30.23,10.0,Calm,Calm,-,N/A,,Clear,0,2014-04-11 05:53:00
1:53 AM,48.9,45.0,86,30.22,8.0,Calm,Calm,-,N/A,,Clear,0,2014-04-11 06:53:00
2:18 AM,48.0,45.0,89,30.21,2.5,Calm,Calm,-,N/A,,Clear,0,2014-04-11 07:18:00
2:26 AM,48.0,45.0,89,30.21,8.0,Calm,Calm,-,N/A,,Clear,0,2014-04-11 07:26:00
2:53 AM,46.9,44.1,90,30.20,5.0,Calm,Calm,-,N/A,,Clear,0,2014-04-11 07:53:00
3:53 AM,46.9,44.1,90,30.20,6.0,Calm,Calm,-,N/A,,Clear,0,2014-04-11 08:53:00
4:53 AM,45.0,43.0,93,30.21,6.0,Calm,Calm,-,N/A,,Clear,0,2014-04-11 09:53:00
5:53 AM,46.0,42.1,86,30.23,5.0,Calm,Calm,-,N/A,,Partly Cloudy,0,2014-04-11 10:53:00
6:53 AM,46.9,44.1,90,30.25,5.0,Calm,Calm,-,N/A,,Partly Cloudy,0,2014-04-11 11:53:00
7:53 AM,52.0,48.0,86,30.27,7.0,North,-9999.0,-,N/A,,Clear,0,2014-04-11 12:53:00
8:53 AM,60.1,54.0,80,30.27,10.0,Calm,Calm,-,N/A,,Clear,0,2014-04-11 13:53:00
9:53 AM,68.0,55.0,63,30.27,10.0,Calm,Calm,-,N/A,,Clear,0,2014-04-11 14:53:00
10:53 AM,71.1,52.0,51,30.27,10.0,Variable,5.8,-,N/A,,Clear,0,2014-04-11 15:53:00
11:53 AM,73.0,52.0,48,30.25,10.0,SW,5.8,-,N/A,,Mostly Cloudy,220,2014-04-11 16:53:00
12:53 PM,75.0,53.1,46,30.23,10.0,SSW,10.4,-,N/A,,Scattered Clouds,200,2014-04-11 17:53:00
1:53 PM,77.0,54.0,45,30.21,10.0,South,6.9,-,N/A,,Scattered Clouds,180,2014-04-11 18:53:00
2:53 PM,77.0,52.0,42,30.17,10.0,SSW,5.8,-,N/A,,Partly Cloudy,200,2014-04-11 19:53:00
3:53 PM,78.1,53.1,42,30.15,10.0,South,8.1,-,N/A,,Mostly Cloudy,180,2014-04-11 20:53:00
4:53 PM,75.9,55.0,48,30.14,10.0,South,10.4,-,N/A,,Partly Cloudy,180,2014-04-11 21:53:00
5:53 PM,75.9,55.9,50,30.14,10.0,South,9.2,-,N/A,,Mostly Cloudy,190,2014-04-11 22:53:00
6:53 PM,73.0,57.0,57,30.14,10.0,South,9.2,-,N/A,,Clear,190,2014-04-11 23:53:00
7:53 PM,68.0,57.0,68,30.14,10.0,South,6.9,-,N/A,,Clear,190,2014-04-12 00:53:00
8:53 PM,64.9,55.9,73,30.17,10.0,SSW,5.8,-,N/A,,Clear,210,2014-04-12 01:53:00
9:53 PM,64.0,55.0,73,30.19,10.0,SSW,4.6,-,N/A,,Clear,200,2014-04-12 02:53:00
10:53 PM,60.1,54.0,80,30.19,10.0,Calm,Calm,-,N/A,,Clear,0,2014-04-12 03:53:00
11:53 PM,57.0,53.1,87,30.18,7.0,Calm,Calm,-,N/A,,Clear,0,2014-04-12 04:53:00